Regional Weather Roundup
Issued by NWS Goodland, KS

Home | Current Version | Previous Version | Graphics & Text | Print | Product List | Glossary On
Versions: 1 2 3 4 5 6 7 8 9 10 11 12 13 14 15 16 17 18 19 20 21 22 23 24 25 26 27 28 29 30 31 32 33 34 35 36 37 38 39 40 41 42 43 44 45 46 47 48 49 50
000
ASUS43 KGLD 272208
RWRGLD

GOODLAND FORECAST AREA HOURLY WEATHER ROUNDUP
NATIONAL WEATHER SERVICE GOODLAND KS
400 PM MDT THU APR 27 2017

...OFFICIAL OBSERVATIONS...

CITY           SKY/WX    TMP DP  RH WIND       PRES   REMARKS
GOODLAND KS    CLOUDY    63  39  41 SE25G36   29.43F
HILL CITY KS   CLOUDY    51  45  79 E13       29.59S
IMPERIAL NEB   LGT RAIN  49  38  65 SE22G32   29.53S
MCCOOK NEB     CLOUDY    54  38  54 E17       29.56F
AKRON CO       RAIN      44  40  85 CALM      29.51S FOG
BURLINGTON CO  NOT AVBL
LIMON CO       CLOUDY    44  37  76 N3        29.48F
$$

...UNOFFICIAL OBSERVATIONS...

CITY           SKY/WX    TMP DP  RH WIND       PRES   REMARKS
LENORA KS        N/A     50  32  50 MISG        N/A
NORTON KS      CLOUDY    54  36  50 E22G31    29.58R
SHARON SPRINGS   N/A     63  43  48 SE16G29     N/A
KIT CARSON CO    N/A     61  38  43 MISG        N/A
$$



USA.gov is the U.S. government's official web portal to all federal, state and local government web resources and services.